| time (UTC) | temp F | wind direction | speed knots | gust knots | rain 1hr in | rain 24hr in | rain mn in | humidity % | barometer mb |
| 20260502224543 | 84 | 331 | 4.3 | 11.3 | 0.00 | 0.00 | 0.00 | 100 | 1012.1 |
| 20260502224041 | 85 | 323 | 3.5 | 11.3 | 0.00 | 0.00 | 0.00 | 100 | 1012.0 |
| 20260502223541 | 86 | 302 | 4.3 | 8.7 | 0.00 | 0.00 | 0.00 | 100 | 1011.9 |
| 20260502223045 | 86 | 306 | 4.3 | 8.7 | 0.00 | 0.00 | 0.00 | 100 | 1011.8 |
| 20260502222544 | 86 | 296 | 1.7 | 8.7 | 0.00 | 0.00 | 0.00 | 100 | 1011.8 |
| 20260502222040 | 86 | 337 | 3.5 | 8.7 | 0.00 | 0.00 | 0.00 | 100 | 1011.8 |
| 20260502221545 | 87 | 348 | 3.5 | 10.4 | 0.00 | 0.00 | 0.00 | 100 | 1011.8 |
| 20260502221042 | 87 | 316 | 3.5 | 10.4 | 0.00 | 0.00 | 0.00 | 100 | 1011.7 |
| 20260502220542 | 87 | 355 | 3.5 | 9.6 | 0.00 | 0.00 | 0.00 | 100 | 1011.6 |
| 20260502220040 | 87 | 348 | 3.5 | 7.8 | 0.00 | 0.00 | 0.00 | 100 | 1011.6 |
| 20260502215540 | 88 | 314 | 3.5 | 7.8 | 0.00 | 0.00 | 0.00 | 100 | 1011.6 |
| 20260502215039 | 88 | 340 | 4.3 | 7.8 | 0.00 | 0.00 | 0.00 | 100 | 1011.6 |
| 20260502214550 | 88 | 308 | 2.6 | 11.3 | 0.00 | 0.00 | 0.00 | 100 | 1011.7 |
| 20260502214039 | 88 | 333 | 3.5 | 11.3 | 0.00 | 0.00 | 0.00 | 100 | 1011.7 |
| 20260502213542 | 89 | 319 | 4.3 | 11.3 | 0.00 | 0.00 | 0.00 | 100 | 1011.7 |
| 20260502213039 | 89 | 340 | 3.5 | 10.4 | 0.00 | 0.00 | 0.00 | 100 | 1011.7 |
| 20260502212540 | 89 | 315 | 2.6 | 8.7 | 0.00 | 0.00 | 0.00 | 100 | 1011.7 |
| 20260502212038 | 90 | 315 | 1.7 | 9.6 | 0.00 | 0.00 | 0.00 | 100 | 1011.5 |
| 20260502211538 | 90 | 291 | 5.2 | 9.6 | 0.00 | 0.00 | 0.00 | 100 | 1011.4 |
| 20260502211037 | 91 | 302 | 3.5 | 10.4 | 0.00 | 0.00 | 0.00 | 100 | 1011.3 |
| 20260502210535 | 91 | 342 | 2.6 | 11.3 | 0.00 | 0.00 | 0.00 | 100 | 1011.3 |
| 20260502210046 | 90 | 265 | 3.5 | 11.3 | 0.00 | 0.00 | 0.00 | 100 | 1011.2 |
| 20260502205533 | 91 | 316 | 2.6 | 8.7 | 0.00 | 0.00 | 0.00 | 100 | 1011.2 |
| 20260502205031 | 91 | 28 | 2.6 | 9.6 | 0.00 | 0.00 | 0.00 | 100 | 1011.2 |
| 20260502204532 | 91 | 317 | 2.6 | 9.6 | 0.00 | 0.00 | 0.00 | 100 | 1011.3 |
| 20260502204029 | 91 | 296 | 1.7 | 9.6 | 0.00 | 0.00 | 0.00 | 100 | 1011.2 |
| 20260502203526 | 91 | 318 | 2.6 | 11.3 | 0.00 | 0.00 | 0.00 | 100 | 1011.2 |
| 20260502203025 | 91 | 291 | 4.3 | 11.3 | 0.00 | 0.00 | 0.00 | 100 | 1011.3 |
| 20260502202525 | 91 | 227 | 3.5 | 13.0 | 0.00 | 0.00 | 0.00 | 100 | 1011.3 |
| 20260502202021 | 91 | 228 | 4.3 | 13.0 | 0.00 | 0.00 | 0.00 | 100 | 1011.2 |
| 20260502201523 | 91 | 259 | 5.2 | 11.3 | 0.00 | 0.00 | 0.00 | 100 | 1011.3 |
| 20260502201019 | 91 | 334 | 2.6 | 12.2 | 0.00 | 0.00 | 0.00 | 100 | 1011.3 |
| 20260502200517 | 90 | 217 | 3.5 | 12.2 | 0.00 | 0.00 | 0.00 | 100 | 1011.2 |
| 20260502200016 | 91 | 243 | 4.3 | 9.6 | 0.00 | 0.00 | 0.00 | 100 | 1011.3 |
| 20260502195513 | 91 | 234 | 3.5 | 12.2 | 0.00 | 0.00 | 0.00 | 100 | 1011.2 |
| 20260502195013 | 90 | 234 | 3.5 | 13.0 | 0.00 | 0.00 | 0.00 | 100 | 1011.3 |
| 20260502194512 | 91 | 244 | 3.5 | 13.0 | 0.00 | 0.00 | 0.00 | 100 | 1011.4 |
| 20260502194010 | 91 | 242 | 2.6 | 14.8 | 0.00 | 0.00 | 0.00 | 100 | 1011.4 |
| 20260502193511 | 91 | 196 | 7.0 | 14.8 | 0.00 | 0.00 | 0.00 | 100 | 1011.5 |
| 20260502193007 | 91 | 306 | 5.2 | 13.0 | 0.00 | 0.00 | 0.00 | 100 | 1011.5 |
| 20260502192508 | 91 | 309 | 4.3 | 14.8 | 0.00 | 0.00 | 0.00 | 100 | 1011.6 |
| 20260502192006 | 91 | 261 | 7.0 | 14.8 | 0.00 | 0.00 | 0.00 | 100 | 1011.6 |
| 20260502191502 | 91 | 350 | 5.2 | 16.5 | 0.00 | 0.00 | 0.00 | 100 | 1011.5 |
| 20260502191001 | 91 | 211 | 5.2 | 18.2 | 0.00 | 0.00 | 0.00 | 100 | 1011.6 |
| 20260502190559 | 91 | 247 | 9.6 | 18.2 | 0.00 | 0.00 | 0.00 | 100 | 1011.5 |
| 20260502190158 | 91 | 232 | 7.8 | 18.2 | 0.00 | 0.00 | 0.00 | 100 | 1011.7 |
| 20260502185556 | 91 | 167 | 7.8 | 16.5 | 0.00 | 0.00 | 0.00 | 100 | 1011.7 |
| 20260502185054 | 90 | 252 | 4.3 | 13.0 | 0.00 | 0.00 | 0.00 | 100 | 1011.6 |
| 20260502184553 | 90 | 216 | 3.5 | 13.0 | 0.00 | 0.00 | 0.00 | 100 | 1011.6 |
| 20260502184053 | 90 | 242 | 3.5 | 13.0 | 0.00 | 0.00 | 0.00 | 100 | 1011.6 |
| 20260502183551 | 90 | 230 | 3.5 | 13.0 | 0.00 | 0.00 | 0.00 | 100 | 1011.6 |
| 20260502183056 | 90 | 217 | 4.3 | 13.9 | 0.00 | 0.00 | 0.00 | 100 | 1011.7 |
| 20260502182549 | 90 | 234 | 5.2 | 13.9 | 0.00 | 0.00 | 0.00 | 100 | 1011.8 |
| 20260502182045 | 90 | 231 | 4.3 | 13.0 | 0.00 | 0.00 | 0.00 | 100 | 1011.8 |
| 20260502181544 | 90 | 216 | 4.3 | 15.6 | 0.00 | 0.00 | 0.00 | 100 | 1011.8 |
| 20260502181046 | 90 | 227 | 8.7 | 15.6 | 0.00 | 0.00 | 0.00 | 100 | 1011.8 |
| 20260502180541 | 90 | 160 | 3.5 | 17.4 | 0.00 | 0.00 | 0.00 | 100 | 1011.9 |
| 20260502164016 | 88 | 198 | 7.8 | 17.4 | 0.00 | 0.00 | 0.00 | 100 | 1012.8 |
| 20260502163517 | 88 | 229 | 5.2 | 16.5 | 0.00 | 0.00 | 0.00 | 100 | 1012.8 |
| 20260502163019 | 88 | 211 | 6.1 | 16.5 | 0.00 | 0.00 | 0.00 | 100 | 1012.9 |
| 20260502162512 | 88 | 294 | 6.1 | 14.8 | 0.00 | 0.00 | 0.00 | 100 | 1012.9 |
| 20260502162011 | 88 | 231 | 2.6 | 16.5 | 0.00 | 0.00 | 0.00 | 100 | 1012.8 |
| 20260502161508 | 87 | 227 | 7.0 | 16.5 | 0.00 | 0.00 | 0.00 | 100 | 1012.9 |
| 20260502161007 | 87 | 239 | 4.3 | 16.5 | 0.00 | 0.00 | 0.00 | 100 | 1013.0 |
| 20260502160507 | 87 | 229 | 5.2 | 16.5 | 0.00 | 0.00 | 0.00 | 100 | 1013.0 |
| 20260502152053 | 85 | 229 | 6.1 | 14.8 | 0.00 | 0.00 | 0.00 | 100 | 1012.9 |
| 20260502151556 | 85 | 159 | 6.1 | 14.8 | 0.00 | 0.00 | 0.00 | 100 | 1012.9 |
| 20260502151050 | 84 | 219 | 5.2 | 14.8 | 0.00 | 0.00 | 0.00 | 100 | 1012.8 |
| 20260502150550 | 84 | 234 | 5.2 | 14.8 | 0.00 | 0.00 | 0.00 | 100 | 1012.9 |
| 20260502130535 | 77 | 223 | 1.7 | 7.8 | 0.00 | 0.00 | 0.00 | 100 | 1012.8 |
| 20260502123533 | 74 | 211 | 1.7 | 6.1 | 0.00 | 0.00 | 0.00 | 100 | 1012.8 |
| 20260502123039 | 74 | 238 | 0.9 | 6.1 | 0.00 | 0.00 | 0.00 | 100 | 1012.8 |
| 20260502122531 | 74 | 222 | 0.9 | 4.3 | 0.00 | 0.00 | 0.00 | 100 | 1012.7 |
| 20260502122031 | 73 | 244 | 1.7 | 6.1 | 0.00 | 0.00 | 0.00 | 100 | 1012.8 |
| 20260502121533 | 73 | 251 | 1.7 | 6.1 | 0.00 | 0.00 | 0.00 | 100 | 1012.6 |
| 20260502121030 | 72 | 244 | 0.9 | 4.3 | 0.00 | 0.00 | 0.00 | 100 | 1012.7 |
| 20260502120531 | 72 | 219 | 0.9 | 4.3 | 0.00 | 0.00 | 0.00 | 100 | 1012.8 |
| 20260502115530 | 71 | 244 | 1.7 | 4.3 | 0.00 | 0.00 | 0.00 | 100 | 1012.6 |
| 20260502115030 | 70 | 182 | 0.9 | 5.2 | 0.00 | 0.00 | 0.00 | 100 | 1012.7 |
| 20260502114540 | 70 | 186 | 1.7 | 5.2 | 0.00 | 0.00 | 0.00 | 100 | 1012.6 |
| 20260502114031 | 70 | 180 | 0.9 | 4.3 | 0.00 | 0.00 | 0.00 | 100 | 1012.7 |
| 20260502113530 | 70 | 235 | 0.9 | 5.2 | 0.00 | 0.00 | 0.00 | 100 | 1012.8 |
| 20260502113031 | 70 | 166 | 1.7 | 5.2 | 0.00 | 0.00 | 0.00 | 100 | 1012.7 |
| 20260502112529 | 70 | 194 | 1.7 | 3.5 | 0.00 | 0.00 | 0.00 | 100 | 1012.7 |
| 20260502112031 | 70 | 205 | 0.9 | 3.5 | 0.00 | 0.00 | 0.00 | 100 | 1012.8 |
| 20260502111529 | 70 | 207 | 0.9 | 3.5 | 0.00 | 0.00 | 0.00 | 100 | 1012.9 |
| 20260502111029 | 70 | 227 | 0.0 | 2.6 | 0.00 | 0.00 | 0.00 | 100 | 1012.9 |
| 20260502110529 | 70 | 229 | 0.9 | 3.5 | 0.00 | 0.00 | 0.00 | 100 | 1012.9 |
| 20260502110029 | 70 | 238 | 0.9 | 3.5 | 0.00 | 0.00 | 0.00 | 100 | 1012.9 |
| 20260502105527 | 70 | 230 | 1.7 | 3.5 | 0.00 | 0.00 | 0.00 | 100 | 1012.9 |
| 20260502105029 | 70 | 210 | 0.9 | 3.5 | 0.00 | 0.00 | 0.00 | 100 | 1012.8 |
| 20260502104527 | 70 | 211 | 0.9 | 3.5 | 0.00 | 0.00 | 0.00 | 100 | 1012.7 |
| 20260502104028 | 70 | 213 | 0.0 | 2.6 | 0.00 | 0.00 | 0.00 | 100 | 1012.8 |
| 20260502103527 | 70 | 212 | 0.9 | 2.6 | 0.00 | 0.00 | 0.00 | 100 | 1012.7 |
| 20260502103027 | 70 | 213 | 0.0 | 2.6 | 0.00 | 0.00 | 0.00 | 100 | 1012.7 |
| 20260502102527 | 70 | 207 | 0.0 | 3.5 | 0.00 | 0.00 | 0.00 | 100 | 1012.7 |
| 20260502102027 | 70 | 202 | 0.0 | 5.2 | 0.00 | 0.00 | 0.00 | 100 | 1012.7 |
| 20260502101526 | 70 | 197 | 1.7 | 5.2 | 0.00 | 0.00 | 0.00 | 100 | 1012.7 |
| 20260502101026 | 70 | 208 | 0.9 | 3.5 | 0.00 | 0.00 | 0.00 | 100 | 1012.7 |
| 20260502100525 | 70 | 210 | 0.9 | 3.5 | 0.00 | 0.00 | 0.00 | 100 | 1012.8 |
| 20260502091521 | 71 | 246 | 0.0 | 2.6 | 0.00 | 0.00 | 0.00 | 100 | 1012.7 |
| 20260502091021 | 71 | 294 | 0.0 | 4.3 | 0.00 | 0.00 | 0.00 | 100 | 1012.6 |
| 20260502090521 | 71 | 229 | 0.9 | 4.3 | 0.00 | 0.00 | 0.00 | 100 | 1012.6 |
| 20260502071510 | 74 | 240 | 0.9 | 4.3 | 0.00 | 0.00 | 0.00 | 100 | 1012.6 |
| 20260502071010 | 74 | 240 | 0.9 | 5.2 | 0.00 | 0.00 | 0.00 | 100 | 1012.5 |
| 20260502070509 | 74 | 229 | 1.7 | 3.5 | 0.00 | 0.00 | 0.00 | 100 | 1012.6 |
| 20260502070009 | 74 | 222 | 0.9 | 3.5 | 0.00 | 0.00 | 0.00 | 100 | 1012.7 |
| 20260502065508 | 74 | 230 | 0.9 | 3.5 | 0.00 | 0.00 | 0.00 | 100 | 1012.5 |
| 20260502065007 | 74 | 235 | 0.0 | 6.1 | 0.00 | 0.00 | 0.00 | 100 | 1012.5 |
| 20260502064512 | 74 | 234 | 0.9 | 6.1 | 0.00 | 0.00 | 0.00 | 100 | 1012.5 |
| 20260502064007 | 74 | 233 | 0.9 | 4.3 | 0.00 | 0.00 | 0.00 | 100 | 1012.5 |
| 20260502063507 | 74 | 220 | 0.9 | 4.3 | 0.00 | 0.00 | 0.00 | 100 | 1012.7 |
| 20260502063009 | 74 | 196 | 1.7 | 4.3 | 0.00 | 0.00 | 0.00 | 100 | 1012.5 |
| 20260502062506 | 74 | 213 | 0.9 | 4.3 | 0.00 | 0.00 | 0.00 | 100 | 1012.5 |
| 20260502062006 | 75 | 218 | 0.9 | 4.3 | 0.00 | 0.00 | 0.00 | 100 | 1012.6 |
| 20260502061504 | 75 | 199 | 0.9 | 3.5 | 0.00 | 0.00 | 0.00 | 100 | 1012.6 |
| 20260502061003 | 75 | 213 | 0.9 | 4.3 | 0.00 | 0.00 | 0.00 | 100 | 1012.6 |
| 20260502060505 | 75 | 212 | 1.7 | 6.1 | 0.00 | 0.00 | 0.00 | 100 | 1012.8 |
| 20260502060003 | 75 | 198 | 0.9 | 6.1 | 0.00 | 0.00 | 0.00 | 100 | 1012.8 |
| 20260502055502 | 75 | 228 | 1.7 | 4.3 | 0.00 | 0.00 | 0.00 | 100 | 1012.7 |
| 20260502055001 | 75 | 246 | 1.7 | 7.0 | 0.00 | 0.00 | 0.00 | 100 | 1012.9 |
| 20260502054503 | 76 | 224 | 2.6 | 7.0 | 0.00 | 0.00 | 0.00 | 100 | 1013.0 |
| 20260502054002 | 76 | 208 | 1.7 | 5.2 | 0.00 | 0.00 | 0.00 | 100 | 1013.1 |
| 20260502053600 | 76 | 198 | 1.7 | 6.1 | 0.00 | 0.00 | 0.00 | 100 | 1013.1 |
| 20260502053102 | 76 | 205 | 2.6 | 4.3 | 0.00 | 0.00 | 0.00 | 100 | 1013.1 |
| 20260502052559 | 76 | 213 | 1.7 | 5.2 | 0.00 | 0.00 | 0.00 | 100 | 1013.1 |
| 20260502052058 | 76 | 194 | 2.6 | 7.0 | 0.00 | 0.00 | 0.00 | 100 | 1013.2 |
| 20260502051557 | 76 | 186 | 2.6 | 7.0 | 0.00 | 0.00 | 0.00 | 100 | 1013.2 |
| 20260502051058 | 76 | 167 | 2.6 | 6.1 | 0.00 | 0.00 | 0.00 | 100 | 1013.2 |
| 20260502050557 | 76 | 182 | 0.9 | 3.5 | 0.00 | 0.00 | 0.00 | 100 | 1013.2 |
| 20260502050056 | 76 | 246 | 0.9 | 6.1 | 0.00 | 0.00 | 0.00 | 100 | 1013.3 |
| 20260502045656 | 76 | 224 | 1.7 | 6.1 | 0.00 | 0.00 | 0.00 | 100 | 1013.3 |
| 20260502045055 | 76 | 210 | 1.7 | 4.3 | 0.00 | 0.00 | 0.00 | 100 | 1013.2 |
| 20260502044607 | 76 | 232 | 1.7 | 4.3 | 0.00 | 0.00 | 0.00 | 100 | 1013.2 |
| 20260502044056 | 77 | 225 | 0.9 | 4.3 | 0.00 | 0.00 | 0.00 | 100 | 1013.2 |
| 20260502043556 | 77 | 217 | 0.9 | 4.3 | 0.00 | 0.00 | 0.00 | 100 | 1013.2 |
| 20260502043124 | 77 | 220 | 1.7 | 4.3 | 0.00 | 0.00 | 0.00 | 100 | 1013.2 |
| 20260502042553 | 77 | 227 | 2.6 | 4.3 | 0.00 | 0.00 | 0.00 | 100 | 1013.2 |
| 20260502042052 | 77 | 189 | 0.9 | 3.5 | 0.00 | 0.00 | 0.00 | 100 | 1013.2 |
| 20260502041600 | 77 | 197 | 1.7 | 4.3 | 0.00 | 0.00 | 0.00 | 100 | 1013.2 |
| 20260502041054 | 77 | 242 | 2.6 | 7.0 | 0.00 | 0.00 | 0.00 | 100 | 1013.2 |
| 20260502040554 | 77 | 204 | 1.7 | 4.3 | 0.00 | 0.00 | 0.00 | 100 | 1013.3 |
| 20260502040051 | 77 | 213 | 1.7 | 6.1 | 0.00 | 0.00 | 0.00 | 100 | 1013.2 |
| 20260502035550 | 77 | 225 | 2.6 | 6.1 | 0.00 | 0.00 | 0.00 | 100 | 1013.3 |
| 20260502035049 | 77 | 235 | 1.7 | 7.0 | 0.00 | 0.00 | 0.00 | 100 | 1013.4 |
| 20260502034549 | 78 | 234 | 1.7 | 6.1 | 0.00 | 0.00 | 0.00 | 100 | 1013.3 |
| 20260502034050 | 78 | 217 | 1.7 | 6.1 | 0.00 | 0.00 | 0.00 | 100 | 1013.3 |
| 20260502033548 | 78 | 235 | 1.7 | 7.0 | 0.00 | 0.00 | 0.00 | 100 | 1013.3 |
| 20260502033051 | 78 | 211 | 1.7 | 7.0 | 0.00 | 0.00 | 0.00 | 100 | 1013.3 |
| 20260502032548 | 78 | 203 | 2.6 | 6.1 | 0.00 | 0.00 | 0.00 | 100 | 1013.3 |
| 20260502032050 | 78 | 218 | 1.7 | 6.1 | 0.00 | 0.00 | 0.00 | 100 | 1013.2 |
| 20260502031550 | 78 | 192 | 1.7 | 6.1 | 0.00 | 0.00 | 0.00 | 100 | 1013.2 |
| 20260502031048 | 78 | 210 | 2.6 | 6.1 | 0.00 | 0.00 | 0.00 | 100 | 1013.2 |
| 20260502030547 | 78 | 214 | 1.7 | 7.8 | 0.00 | 0.00 | 0.00 | 100 | 1013.2 |
| 20260502030049 | 78 | 228 | 2.6 | 7.8 | 0.00 | 0.00 | 0.00 | 100 | 1013.2 |
| 20260502025547 | 78 | 176 | 2.6 | 7.8 | 0.00 | 0.00 | 0.00 | 100 | 1013.3 |
| 20260502025047 | 78 | 221 | 2.6 | 7.8 | 0.00 | 0.00 | 0.00 | 100 | 1013.3 |
| 20260502024548 | 78 | 236 | 1.7 | 5.2 | 0.00 | 0.00 | 0.00 | 100 | 1013.2 |
| 20260502024047 | 78 | 202 | 2.6 | 5.2 | 0.00 | 0.00 | 0.00 | 100 | 1013.1 |
| 20260502023549 | 79 | 205 | 1.7 | 7.8 | 0.00 | 0.00 | 0.00 | 100 | 1013.1 |
| 20260502023047 | 79 | 181 | 3.5 | 7.8 | 0.00 | 0.00 | 0.00 | 100 | 1013.0 |
| 20260502022545 | 79 | 159 | 3.5 | 7.8 | 0.00 | 0.00 | 0.00 | 100 | 1012.9 |
| 20260502022045 | 79 | 171 | 2.6 | 7.0 | 0.00 | 0.00 | 0.00 | 100 | 1012.9 |
| 20260502021546 | 79 | 190 | 3.5 | 7.0 | 0.00 | 0.00 | 0.00 | 100 | 1012.9 |
| 20260502021045 | 79 | 141 | 3.5 | 10.4 | 0.00 | 0.00 | 0.00 | 100 | 1012.9 |
| 20260502020548 | 79 | 190 | 2.6 | 7.8 | 0.00 | 0.00 | 0.00 | 100 | 1012.8 |
| 20260502020045 | 79 | 159 | 4.3 | 8.7 | 0.00 | 0.00 | 0.00 | 100 | 1012.7 |
| 20260502015545 | 79 | 192 | 2.6 | 7.0 | 0.00 | 0.00 | 0.00 | 100 | 1012.8 |
| 20260502015045 | 79 | 174 | 2.6 | 7.0 | 0.00 | 0.00 | 0.00 | 100 | 1012.7 |
| 20260502014545 | 79 | 198 | 2.6 | 10.4 | 0.00 | 0.00 | 0.00 | 100 | 1012.7 |
| 20260502014044 | 80 | 169 | 4.3 | 10.4 | 0.00 | 0.00 | 0.00 | 100 | 1012.6 |
| 20260502013544 | 80 | 157 | 3.5 | 9.6 | 0.00 | 0.00 | 0.00 | 100 | 1012.6 |
| 20260502013052 | 80 | 161 | 4.3 | 9.6 | 0.00 | 0.00 | 0.00 | 100 | 1012.5 |
| 20260502012544 | 80 | 166 | 4.3 | 9.6 | 0.00 | 0.00 | 0.00 | 100 | 1012.4 |
| 20260502012044 | 80 | 175 | 5.2 | 11.3 | 0.00 | 0.00 | 0.00 | 100 | 1012.5 |
| 20260502011547 | 80 | 159 | 6.1 | 11.3 | 0.00 | 0.00 | 0.00 | 100 | 1012.4 |
| 20260502011043 | 80 | 125 | 5.2 | 11.3 | 0.00 | 0.00 | 0.00 | 100 | 1012.3 |
| 20260502010543 | 80 | 171 | 4.3 | 11.3 | 0.00 | 0.00 | 0.00 | 100 | 1012.3 |
| 20260502010043 | 80 | 174 | 4.3 | 12.2 | 0.00 | 0.00 | 0.00 | 100 | 1012.1 |
| 20260502005544 | 80 | 162 | 3.5 | 11.3 | 0.00 | 0.00 | 0.00 | 100 | 1012.2 |
| 20260502005043 | 80 | 115 | 3.5 | 12.2 | 0.00 | 0.00 | 0.00 | 100 | 1012.1 |
| 20260502004545 | 80 | 189 | 3.5 | 10.4 | 0.00 | 0.00 | 0.00 | 100 | 1012.0 |
| 20260502004043 | 80 | 172 | 4.3 | 9.6 | 0.00 | 0.00 | 0.00 | 100 | 1011.9 |
| 20260502003542 | 80 | 165 | 5.2 | 9.6 | 0.00 | 0.00 | 0.00 | 100 | 1011.9 |
| 20260502003042 | 80 | 151 | 3.5 | 8.7 | 0.00 | 0.00 | 0.00 | 100 | 1011.8 |
| 20260502002541 | 80 | 133 | 5.2 | 9.6 | 0.00 | 0.00 | 0.00 | 100 | 1011.7 |
| 20260502002043 | 80 | 150 | 4.3 | 9.6 | 0.00 | 0.00 | 0.00 | 100 | 1011.6 |
| 20260502001541 | 80 | 162 | 3.5 | 9.6 | 0.00 | 0.00 | 0.00 | 100 | 1011.5 |
| 20260502001041 | 80 | 171 | 5.2 | 9.6 | 0.00 | 0.00 | 0.00 | 100 | 1011.4 |
| 20260502000541 | 81 | 151 | 4.3 | 9.6 | 0.00 | 0.00 | 0.00 | 100 | 1011.4 |
| 20260502000041 | 81 | 177 | 2.6 | 9.6 | 0.00 | 0.00 | 0.00 | 100 | 1011.4 |
| 20260501235540 | 81 | 167 | 5.2 | 9.6 | 0.00 | 0.00 | 0.00 | 100 | 1011.4 |
| 20260501235040 | 81 | 139 | 4.3 | 10.4 | 0.00 | 0.00 | 0.00 | 100 | 1011.4 |
| 20260501234542 | 81 | 155 | 5.2 | 13.0 | 0.00 | 0.00 | 0.00 | 100 | 1011.3 |
| 20260501234040 | 81 | 176 | 7.0 | 13.0 | 0.00 | 0.00 | 0.00 | 100 | 1011.3 |
| 20260501233540 | 81 | 156 | 5.2 | 13.0 | 0.00 | 0.00 | 0.00 | 100 | 1011.2 |
| 20260501233041 | 81 | 151 | 6.1 | 13.0 | 0.00 | 0.00 | 0.00 | 100 | 1011.2 |
| 20260501232542 | 81 | 175 | 4.3 | 12.2 | 0.00 | 0.00 | 0.00 | 100 | 1011.2 |
| 20260501232043 | 82 | 182 | 6.1 | 13.9 | 0.00 | 0.00 | 0.00 | 100 | 1011.1 |
| 20260501231539 | 82 | 155 | 4.3 | 13.9 | 0.00 | 0.00 | 0.00 | 100 | 1011.2 |
| 20260501231039 | 82 | 151 | 5.2 | 10.4 | 0.00 | 0.00 | 0.00 | 100 | 1011.1 |
| 20260501230538 | 82 | 161 | 4.3 | 12.2 | 0.00 | 0.00 | 0.00 | 100 | 1011.1 |
| 20260501230038 | 82 | 153 | 7.0 | 12.2 | 0.00 | 0.00 | 0.00 | 100 | 1011.0 |
| 20260501225538 | 82 | 130 | 5.2 | 8.7 | 0.00 | 0.00 | 0.00 | 100 | 1011.0 |
| 20260501225037 | 82 | 158 | 4.3 | 8.7 | 0.00 | 0.00 | 0.00 | 100 | 1011.0 |